Volver al catálogo

BREEZE-M DEB

LostHEO
NORAD 38582·DEBRIS·🇷🇺 Russia

Lanzado Mar 14, 2008 desde Baikonur Cosmodrome

Loading…

Próximos Pases (próximas 24 horas)

TLE

ObsoletoSource: Space-Track

Época: Apr 6, 2013, 12:49 UTC

1 38582U 08011AD  13096.53440181 -.00000048  00000-0  10000-3 0  9998
2 38582 047.5207 262.8982 6144960 175.6948 007.0088 02.99711522 21857

Sigue BREEZE-M DEB en tiempo real con AllMySat

Download on the App Store